Orbital Elements at Epoch 2459200.5 (2020-Dec-17.0) TDB
Reference: JPL 14 (heliocentric ecliptic J2000)
Element | Value | Uncertainty (1-sigma) | Units |
e | .1675795447364251 | 5.6691e-08 | |
a | 3.196978745994649 | 3.7451e-08 | au |
q | 2.661230503208838 | 1.9372e-07 | au |
i | 5.94341123449741 | 8.6865e-06 | deg |
node | 58.82762002319584 | 6.6407e-05 | deg |
peri | 259.568020100099 | 7.2115e-05 | deg |
M | 311.7453646052685 | 3.0446e-05 | deg |
tp | 2459480.362421893750 (2021-Sep-22.86242189) | 0.00017811 | TDB |
period | 2087.892096947643 5.72 | 3.6688e-05 1.004e-07 | d yr |
n | .1724227035134122 | 3.0298e-09 | deg/d |
Q | 3.73272698878046 | 4.3727e-08 | au |
|
| | Orbit Determination Parameters
Additional Information
|